Tracking 17138 objects as of 7-July-2015
HD Live streaming from Space Station

COSMOS 482 DESCENT CRAFT

Track COSMOS 482 DESCENT CRAFT now!
10-day predictions
COSMOS 482 DESCENT CRAFT is classified as:


NORAD ID: 6073
Int'l Code: 1972-023E
Perigee: 211.4 km
Apogee: 2,933.3 km
Inclination: 52.1 °
Period: 117.4 minutes
Semi major axis: 7943 km
RCS: 0.7153 m2 (medium)
Launch date: March 31, 1972
Source: Commonwealth of Independent States (former USSR) (CIS)
Your satellite tracking list
Your tracking list is empty





NASA's NSSDC Master Catalog

Two Line Element Set (TLE):
1 06073U 72023E   15188.20252546  .00029718  52385-5  16045-3 0  9993
2 06073 052.0647 150.4195 1713324 138.7098 321.0831 12.26305390272419

Source of the keplerian elements: AFSPC

N2YO: 440